Location: Newark
(45.9456°N, 15.4064°E)
Time: 15:19:44
(UTC+00:00)

SR - Pass Details

Date: 30 January 2020
Orbit: 575 x 880 km, 66.7° (Epoch: 26 February)

Event Time Altitude Azimuth Distance (km) Brightness Sun altitude
Rises 23:21:36 0° 296° (WNW) 3,483 - -61.6°
Reaches altitude 10° 23:27:00 10° 336° (NNW) 2,527 - -61.5°
Maximum altitude 23:27:55 10° 345° (NNW) 2,496 - -61.4°
Drops below altitude 10° 23:28:50 10° 354° (N) 2,513 - -61.4°
Sets 23:34:07 0° 35° (NE) 3,390 - -61.3°
